Lid_Strength_Index
7 9 10 9 9 9 9 10 11 10 9 9 9 9 8 7 7 8 7 7 7 6 5 4 4 3 3 2 1 0 0 0 0 0 1 1 1 0 -0 -1 -1 -1 -1 -0
9 10 9 9 9 9 10 10 11 10 9 9 9 10 8 8 8 8 8 8 8 7 6 5 4 3 3 2 1 1 0 0 0 0 0 0 0 -0 -0 -1 -1 -1 -1 -1
10 9 9 9 10 10 10 10 10 10 9 8 9 10 9 8 8 8 8 8 8 8 7 6 5 4 2 2 2 1 1 0 0 -0 -0 -0 -0 -0 0 0 -0 -1 -1 -1
9 9 9 10 10 9 10 9 10 10 11 12 9 12 10 9 9 9 9 9 8 8 7 6 6 5 4 2 1 1 1 1 0 -0 0 1 1 2 1 0 -0 -0 -1 -1
10 10 10 10 10 9 10 9 9 10 10 10 11 12 11 9 11 11 10 9 9 8 8 8 7 5 5 4 3 2 1 1 1 1 1 1 1 1 0 -0 0 -0 -1 -1
9 8 8 9 9 9 8 9 10 10 10 13 11 12 12 11 10 11 10 10 9 9 8 8 7 6 5 5 4 4 4 4 3 1 1 1 1 1 1 1 1 0 -0 -0
9 9 8 8 9 8 9 10 12 14 14 13 11 12 11 9 9 10 10 10 10 9 9 9 8 8 7 6 5 5 5 5 5 5 4 3 2 1 2 2 1 1 1 0
11 12 9 9 9 10 9 10 12 15 14 13 11 13 11 9 9 9 9 10 9 9 9 9 8 8 8 7 7 6 6 6 5 5 4 4 3 4 4 4 3 3 3 2
11 11 9 9 8 9 10 11 9 11 11 13 11 11 9 9 10 10 10 9 9 9 9 9 8 8 8 7 7 7 7 7 6 5 5 5 5 5 5 4 4 4 4 4
9 12 10 9 8 8 9 8 11 11 15 15 12 12 11 11 10 10 10 10 9 9 9 8 8 8 7 7 7 7 7 7 7 6 5 5 5 5 5 5 5 5 4 4
9 10 11 9 10 10 10 10 10 10 11 14 15 13 9 8 8 9 9 9 9 9 9 8 8 8 7 7 7 7 7 7 7 7 6 6 5 5 5 5 5 5 5 5
9 9 11 11 9 8 9 10 10 12 13 11 12 12 8 7 7 8 9 9 9 8 8 8 8 8 8 8 7 7 7 8 8 7 7 6 6 6 6 6 5 5 5 5
9 10 13 12 10 9 10 10 10 10 10 13 13 12 8 7 7 7 8 9 9 8 8 8 7 8 8 8 8 8 8 7 8 8 8 7 7 7 6 6 6 6 6 6
10 10 11 13 13 11 11 11 11 11 13 12 12 11 10 9 8 8 8 8 8 8 8 8 8 8 8 8 8 8 8 8 8 7 7 8 8 8 8 7 7 7 6 6
10 13 12 11 11 11 12 12 11 12 11 13 11 12 10 9 8 8 8 8 8 8 8 8 8 8 8 8 8 8 8 8 8 9 8 8 8 8 8 9 9 8 8 8
12 14 14 14 13 13 14 13 12 13 12 12 12 12 9 8 8 9 8 9 9 8 8 8 8 8 8 8 9 8 9 8 8 8 8 8 9 9 9 9 9 9 9 9
14 14 15 16 14 14 16 13 13 13 12 12 14 12 10 10 9 9 8 9 9 8 8 8 8 8 8 8 8 9 9 8 8 8 8 8 8 9 9 9 9 9 9 9
14 14 14 15 14 18 14 11 11 12 12 11 11 11 10 10 9 8 8 8 8 8 8 8 8 8 8 8 8 8 8 8 8 8 9 9 9 9 9 9 9 9 9 9
12 13 14 16 15 13 14 12 12 13 12 10 11 10 9 9 8 9 7 7 8 8 8 8 8 8 8 8 8 8 8 9 9 9 10 9 9 9 9 9 9 9 9 9
12 12 13 14 17 18 13 11 10 10 15 10 10 10 10 10 13 10 7 7 7 7 8 8 8 8 8 8 8 8 9 9 10 10 10 9 9 10 10 10 10 9 9 9
14 13 15 14 15 14 11 10 9 16 14 10 9 10 10 11 10 8 7 7 7 8 8 8 8 8 8 7 8 8 8 9 9 9 9 10 10 10 10 10 9 9 9 10
15 16 15 14 16 17 9 10 13 11 9 9 9 9 9 9 8 7 6 6 7 7 7 7 7 6 6 6 7 7 8 8 8 8 9 10 9 10 10 10 10 9 10 10
16 13 14 14 13 10 8 9 8 9 10 9 9 8 7 7 7 6 5 5 5 5 5 5 5 5 4 5 5 6 6 6 7 7 8 9 9 9 9 10 10 10 10 10
12 11 14 14 12 11 10 9 9 8 8 7 7 7 6 6 5 4 4 4 4 4 4 4 5 5 5 4 5 5 5 5 6 6 7 7 8 8 8 9 9 10 10 10
12 12 13 13 11 10 9 9 8 8 7 7 6 5 4 4 3 3 3 4 4 4 4 5 5 5 5 5 5 5 6 6 7 7 7 7 7 7 7 7 7 8 8 9
11 12 14 14 10 11 9 8 7 7 7 5 5 4 3 3 3 3 4 4 5 5 4 5 5 5 5 5 6 6 6 7 7 8 6 6 6 6 7 7 6 6 7 7